Showing default

HULIANWANG DIGUI-33, 64286

Orbit data source: Space-Track

HULIANWANG DIGUI-33, 64286 is a payload satellite owned by Zhongguo Xingwang (CN) in LEO that was launched on Thu, 05 Jun 2025 UTC via a CHANG ZHENG 6A launch vehicle from the Taiyaun Space Center, China (TSC). Payload-class satellites include a variety of spacecraft equipped with specific instruments for various scientific and technological missions. These include communications satellites like Starlink; space stations such as the ISS; scientific satellites like the Hubble; Earth observation satellites from companies like Planet Labs, Umbra, and HawkEye 360; GPS; miniature CubeSats for education and research; and military/defense satellites.

Loading next visibility...
Identifier
64286, 2025-121D
Orbit
LEO
Country
Flag of CNCN / PRC
Related business
Manufacturer
SECM
Mission
Operational Civil Communications
Bus & Motor
XINGWANG S, Unknown motor
Mass
~800 kg wet, ~800 kg dry
Launch date (UTC)
2025-06-05 (11 months ago)
Launch vehicle
CHANG ZHENG 6A
Launch site
Taiyaun Space Center, China (TSC)
Object type
Payload
Rocket body
Debris
Shape & HBR
Box + 2 Pan, 5.0 m
Radar Cross Section
5.935 m², Large (>1 m²)

Expand to show TLE details & history
Last TLE update: 1 day ago

TLE from 1 day ago
0 HULIANWANG DIGUI-33
1 64286U 25121D   26135.28184315  .00000043  00000-0  66293-4 0  9993
2 64286  86.5038  24.7116 0001609  83.9469 276.1849 13.24406885 45809
Epoch: 2026-05-15T06:45Z
TLE epoch observation values (Epoch: 2026-05-15T06:45:51.248Z)
Latitude
0.00006°
Longitude
50.23267°
Altitude
1,170.698 km
Speed
7.268 km/s
True Right ascension
01h 38m 50s
True Declination
0° 00' 00"
Sunlit
Object was in daylight at epoch
Visualization orbit readout
Latitude
Unknown
Longitude
Unknown
Altitude
Unknown
Speed
Unknown
Apparent Right ascension
Unknown
Apparent Declination
Unknown
Sunlit
N/A
Visualization observer readout
Local Sidereal Time
20:09:54
Azimuth
Unknown
Elevation
Unknown
Doppler factor
Unknown
Orbital elements
Apogee altitude
1,166.268 km
Perigee altitude
1,163.84 km
Semi-major axis
7,543.191 km
Eccentricity
0.00016
Inclination
86.5038°
RAAN
24.7116°
Arg. of periapsis
83.9469°
True anomaly
276.16657°
Mean anomaly
276.1849°
Eccentric anomaly
276.17573°
Mean motion
3.31292 °/min
Orbital period
108.67 mins
BSTAR
0.000066293
Loading maneuver chart data...
Computing Atmospheric mass density...
Loading historical data...
Loading historical data...
Loading historical data...
Loading historical data...
Loading historical data...
Loading historical data...
Loading historical data...

Documentation

Showing up to 5 results
|